Погода Lublin Radawiec

Погода Lublin Radawiec : погода сейчас, прогноз погоды и архив. Всё, что Вы хотите узнать о погоде Lublin Radawiec!

Поиск расширенной информации на нашем сайте:

Другие новости

Новости СМИ2

Главная страница сайта

Новости сайта

03.07.2017

Напоминаем, что на нашем специализированном сайте Метеоцентр.Азия вы можете получить высокодетализированные автоматические прогнозы погоды по пунктам России, СНГ и мира в авиационном формате (включающие направление и скорость ветра, видимость, явления погоды, количество и форму облачности, нижнюю и верхнюю границу облачности).


Погода Lublin Radawiec - сегодня

Время (UTC), дата Ветер
(°,м/с) 
Видим.   Явления Облачность Т
(°С)
Тd
(°С)
f(%) Тe
(°С)
Pmin
(гПа)
dP
(гПа)
Po
(мм)
O2
(г/м3)
Тmin Tmax R s Состояние
почвы
15 21.02.18 040 (СВ) 22000 м    9/9 1000 м 
[Sc]
+0 -5.5 66 -2  1021.6  744  300           
18 21.02.18 030 (СВ) 10 км  в посл. час снег  10/10 1000 м 
[Sc]
-1.1 -4.6 77 -1  1022.8  1.1  744  302  -6.8  +1.1  0.0     
21 21.02.18 030 (СВ) 3500 м  слаб. ливневой снег  10/10 300 м кучево-дожд. 
[Cb cap]
-3 -4.7 88 -6  1024.3  1.2  745  304           
00 22.02.18 030 (СВ) 7000 м  в посл. час ливневой снег  9/9 300 м 
[Sc]
-4.1 -5.8 88 -7  1024.6  0.2  745  306      0.0     
03 22.02.18 030 (СВ) 7000 м  дымка  10/10 600 м 
[Sc]
-4.4 -6.2 87 -7  1024.6  745  306           
06 22.02.18 050 (СВ) 7000 м  слаб. ливневой снег  10/10 300 м кучево-дожд. 
[Cb cap]
-4.6 -6.3 88 -7  1025.1  0.4  746  306  -4.7  -0.9  0.0  равномерный
сухой снег
100% 
09 22.02.18 040 (СВ) 9000 м  в посл. час снег{ливн. осадки}  10/10 360 м 
[Sc]
-4.3 -7.1 81 -7  1025.7  0.6  746  306           
12 22.02.18 050 (СВ) 15000 м  в посл. час снег{ливн. осадки}  9/9 600 м 
[Sc]
-2.8 -8.1 67 -5  1025.3  -0.2  746  305      0.0     
15 22.02.18 050 (СВ) 21000 м    9/9 600 м 
[Sc]
-3.4 -8.8 66 -6  1024.8  -0.5  746  305           
18 22.02.18 020 (С) 12000 м  слаб. снег  10/10 600 м 
[Sc]
-4.1 -8 74 -7  1025.3  0.4  746  306  -4.7  -2.5  0.0     
21 22.02.18 040 (СВ) 8000 м  слаб. снег  10/10 1000 м 
[Sc]
-6.1 -8.7 82 -8  1025.7  0.1  746  308           
00 23.02.18 050 (СВ) 6000 м  слаб. снег  9/9 300 м 
[Sc]
-6.8 -8.5 88 -8  1025.5  -0.2  746  309      0.0     
03 23.02.18 090 (В) 6000 м  дымка{снег}  10/10 210 м 
[St]
-5.9 -7.1 91 -8  1024.5  -0.9  745  308           
06 23.02.18 060 (СВ) 3{07}  5000 м  слаб. снег  10/6 180 м средняя 
[Frnb|As op]
-5.4 -6.6 91 -8  1025  0.5  746  307  -7.1  -4.1  0.0  мокрый или
старый снег
50-90% 
09 23.02.18 060 (СВ) 6000 м  слаб. ливневой снег  9/9 300 м кучево-дожд. 
[Cb calv]
-4.1 -6.2 85 -5  1024.8  746  306           
12 23.02.18 030 (СВ) 13000 м  {ливн. осадки, снег}  8/8 300 м кучево-дожд. 
[Cb calv]
-3.4 -7.5 73 -6  1024.2  -0.5  745  305      0.0     
15 23.02.18 020 (С) 9000 м  слаб. ливневой снег  9/9 600 м кучево-дожд. 
[Cb cap]
-4.2 -6.8 82 -5  1024.1  -0.2  745  306           
18 23.02.18 030 (СВ) 2300 м  ливневой снег  10/10 600 м кучево-дожд. 
[Cb cap]
-5.4 -6.9 89 -8  1024.3  0.1  745  307  -5.4  -2.9  0.1     
21 23.02.18 010 (С) 10 км  {ливн. осадки, снег}  ясно 
-9.3 -11.5 84 -12  1024.6  -0.2  745  312           
00 24.02.18 340 (С) 5000 м  дымка{ливн. осадки, снег}  ясно 
-13.3 -15 87 -15  1024  -1.1  744  316      0.0     
03 24.02.18 330 (СЗ) 9000 м  дымка  10/0 средняя 
[Ac As]
-10 -11.8 87 -12  1022.7  -0.8  744  312           
06 24.02.18 тихо ()   0800 м  снег  10/8 300 м средняя 
[Sc|As op]
-9.3 -10.9 88 -9  1022.4  -0.2  743  311  -14.3  -5.3  0.1  равномерный
сухой снег
100% 
09 24.02.18 070 (В) 6000 м  слаб. снег  9/9 480 м 
[Sc]
-7.8 -11.1 77 -11  1023  0.7  744  310           
12 24.02.18 030 (СВ) 30000 м  в посл. час снег  9/9 600 м 
[Cu med, cong]
-7.6 -12.5 68 -12  1023.7  0.7  744  310      0.4     
15 24.02.18 020 (С) 30000 м  в посл. час ливневой снег  4/1 600 м верхняя 
[Cu hum|Ci fib]
-8.8 -14.4 64 -14  1025  1.1  745  312           
Время (UTC), дата Ветер
(°,м/с) 
Видим.   Явления Облачность Т
(°С)
Тd
(°С)
f(%) Тe
(°С)
Pmin
(гПа)
dP
(гПа)
Po
(мм)
O2
(г/м3)
Тmin Tmax R s Состояние
почвы

Для получения пояснительной информации подведите курсор к названию столбца.

ПОГОДА Lublin Radawiec - архив

Всё, что Вы хотите узнать о погоде Lublin Radawiec - удобно и подробно!

Выберите нужную дату (начиная с 1 января 2015* года) и нажмите кнопку "Найти".
Будут отображены архивные сводки погоды по пункту Lublin Radawiec, начиная с указанной даты.


Отображать данные в формате CSV (для использования в таблицах Excel)


Внимание! Наш архив погоды предназначен исключительно для личного некоммерческого использования в познавательных целях. Если Вам необходимы официальные справки о состоянии погоды (для производственных, юридических, коммерческих и т.п. целей), обращайтесь в органы Росгидромета.

*Примечание: данная дата относится к архиву по метеостанциям СССР (Россия, СНГ, Балтия).
Архив по метеостанциям Зарубежной Европы и Азии (кроме Китая) хранится 10 дней, по другим регионам земного шара (Китай, Африка, Америка, Австралия, Океания) - 1 день.

Lublin Radawiec - район местоположения метеостанции


Название, широта, долгота, высота метеостанции:
Lublin Radawiec 51.2°ш. 22.4°д. 240 м над ур. моря [Poland]

Дополнительная информация

В oтличие oт бoльшинства пoгoдных сайтoв мы публикуем пoдрoбную метеoинфoрмацию в детальнoм прoфессиoнальнoм фoрмате.

Характеристики температуры и влажнoсти вoздуха измеряются на высoте 2 м в тени вдали oт зданий и деревьев.
Скoрoсть ветра измеряется на высoте 10 м (на урoвне рoста челoвека скoрoсть ветра ниже в 1.5-2 раза). Если метеoстанция нахoдится в гoрoде или в лесу, тo скoрoсть ветра занижена на 2-4 м/с пo сравнению с oткрытым местoм. Скoрoсть ветра над акватoриями крупных рек и oзёр, а также на вершинах хoлмoв на 2-5 м/с выше, чем в oбычных услoвиях.
Атмoсфернoе давление в разных тoчках местнoсти мoжет значительнo oтличаться oт давления на метеoстанции, в зависимoсти oт услoвий рельефа (при пoдъёме на 10 м давление пoнижается примернo на 1 мм рт.ст.).